Voltar ao catálogo

THOR ABLESTAR DEB

AtivoLEO
NORAD 225·DEBRIS·🇺🇸 United States

Lançado Jun 29, 1961 de Cape Canaveral Space Force Station

Loading…

Próximas Passagens (próximas 24 horas)

TLE

AtualizadoSource: Space-Track

Época: Sep 10, 2026, 17:15 UTC

1 00225U 61015BM  26253.71929634  .00001001  00000-0  33675-3 0  9990
2 00225  66.7973  21.3465 0096836 155.9535 204.6137 14.38636701370030

Acompanhe THOR ABLESTAR DEB em tempo real com AllMySat

Download on the App Store